GW1009 Weather Reports


Display with metric or nautical units.
time (UTC)temp
F
wind
direction
speed
MPH
gust
MPH
rain 1hr
in
rain 24hr
in
rain mn
in
humidity
%
barometer
mb
20260901141058 65 98 3.0 5.0 0.00 0.16 0.16 95 1013.0
20260901140554 65 94 3.0 5.0 0.00 0.16 0.16 95 1013.0
20260901140058 65 73 1.0 6.0 0.00 0.16 0.16 95 1012.9
20260901135556 65 103 2.0 6.0 0.00 0.16 0.16 95 1013.1
20260901135055 65 122 1.0 4.0 0.00 0.16 0.16 95 1013.0
20260901134554 65 105 1.0 7.0 0.00 0.16 0.16 95 1013.0
20260901134057 65 96 2.0 7.0 0.00 0.16 0.16 95 1012.9
20260901133553 65 108 3.0 6.0 0.00 0.16 0.16 95 1012.9
20260901133054 65 115 1.0 5.0 0.00 0.16 0.16 95 1013.0
20260901132553 65 130 3.0 7.0 0.00 0.16 0.16 95 1013.0
20260901132054 64 134 3.0 7.0 0.00 0.16 0.16 95 1013.1
20260901131553 65 146 1.0 5.0 0.00 0.16 0.16 95 1013.3
20260901131051 64 120 2.0 6.0 0.00 0.16 0.16 95 1013.5
20260901130550 64 103 2.0 5.0 0.00 0.16 0.16 95 1013.5
20260901130050 64 103 3.0 7.0 0.00 0.16 0.16 95 1013.5
20260901125550 64 123 2.0 7.0 0.00 0.16 0.16 95 1013.6
20260901125050 64 15 2.0 7.0 0.00 0.16 0.16 95 1013.5
20260901124551 64 121 2.0 6.0 0.00 0.16 0.16 95 1013.6
20260901124052 64 96 2.0 5.0 0.00 0.16 0.16 95 1013.6
20260901123550 64 134 2.0 6.0 0.00 0.16 0.16 95 1013.6
20260901123053 64 102 1.0 6.0 0.00 0.16 0.16 95 1013.7
20260901122550 64 114 2.0 7.0 0.00 0.16 0.16 95 1013.7
20260901122049 64 101 3.0 7.0 0.00 0.16 0.16 95 1013.7
20260901121551 64 102 2.0 5.0 0.00 0.16 0.16 95 1013.8
20260901121052 64 134 2.0 6.0 0.00 0.16 0.16 95 1014.0
20260901120552 64 142 2.0 5.0 0.00 0.16 0.16 95 1014.0
20260901120106 64 126 3.0 6.0 0.00 0.16 0.16 95 1014.0
20260901115549 64 139 3.0 7.0 0.00 0.16 0.16 95 1013.9
20260901115048 64 103 2.0 6.0 0.00 0.16 0.16 95 1013.9
20260901114552 64 76 3.0 5.0 0.00 0.16 0.16 94 1014.1
20260901114047 64 119 3.0 5.0 0.00 0.16 0.16 94 1013.9
20260901113547 65 103 2.0 4.0 0.01 0.16 0.16 95 1013.9
20260901113056 65 113 1.0 4.0 0.02 0.16 0.16 95 1013.9
20260901112546 65 111 0.0 4.0 0.02 0.16 0.16 95 1013.7
20260901112047 65 78 1.0 4.0 0.03 0.16 0.16 95 1013.8
20260901111547 65 102 2.0 4.0 0.03 0.16 0.16 95 1013.7
20260901111045 65 128 0.0 2.0 0.03 0.16 0.16 95 1013.7
20260901110546 65 219 0.0 0.0 0.03 0.16 0.16 94 1013.8
20260901110050 65 219 0.0 1.0 0.03 0.16 0.16 94 1013.9
20260901105546 65 219 0.0 1.0 0.03 0.16 0.16 95 1013.8
20260901105048 65 219 0.0 1.0 0.03 0.16 0.16 95 1014.0
20260901104545 65 219 0.0 1.0 0.03 0.16 0.16 95 1014.0
20260901104045 65 219 0.0 3.0 0.03 0.16 0.16 95 1013.7
20260901103544 65 221 0.0 3.0 0.02 0.15 0.15 95 1013.7
20260901103054 65 221 0.0 1.0 0.01 0.14 0.14 94 1013.8
20260901102544 65 221 0.0 1.0 0.00 0.13 0.13 94 1013.6
20260901102044 65 247 0.0 0.0 0.00 0.13 0.13 94 1013.9
20260901101544 65 247 0.0 0.0 0.00 0.13 0.13 94 1013.8
20260901101043 65 247 0.0 0.0 0.00 0.13 0.13 94 1013.8
20260901100546 65 247 0.0 0.0 0.00 0.13 0.13 94 1013.7
20260901100043 65 247 0.0 0.0 0.02 0.13 0.13 94 1013.7
20260901095543 65 247 0.0 1.0 0.04 0.13 0.13 94 1013.7
20260901095043 65 248 0.0 2.0 0.05 0.13 0.13 94 1013.6
20260901094547 65 248 0.0 2.0 0.06 0.13 0.13 94 1013.6
20260901094044 65 246 1.0 2.0 0.06 0.13 0.13 94 1013.7
20260901093542 65 177 0.0 3.0 0.07 0.13 0.13 94 1013.5
20260901093042 65 177 0.0 4.0 0.07 0.13 0.13 94 1013.5
20260901092542 65 165 1.0 5.0 0.07 0.13 0.13 94 1013.4
20260901092042 65 161 0.0 0.0 0.07 0.13 0.13 94 1013.4
20260901091542 65 161 0.0 2.0 0.07 0.13 0.13 94 1013.4
20260901091044 65 161 0.0 2.0 0.07 0.13 0.13 94 1013.4
20260901090541 65 161 0.0 2.0 0.07 0.13 0.13 94 1013.4
20260901090049 65 161 0.0 2.0 0.06 0.11 0.11 94 1013.5
20260901085539 65 163 0.0 1.0 0.04 0.09 0.09 94 1013.5
20260901085039 65 163 0.0 2.0 0.03 0.08 0.08 94 1013.4
20260901084539 65 163 0.0 6.0 0.02 0.07 0.07 94 1013.4
20260901084039 65 163 1.0 6.0 0.02 0.07 0.07 94 1013.4
20260901083539 64 191 2.0 6.0 0.01 0.06 0.06 94 1013.4
20260901083038 64 181 1.0 6.0 0.02 0.06 0.06 94 1013.4
20260901082538 64 185 3.0 6.0 0.02 0.06 0.06 94 1013.4
20260901082038 64 197 2.0 5.0 0.02 0.06 0.06 94 1013.4
20260901081538 64 132 0.0 3.0 0.02 0.06 0.06 94 1013.4
20260901081036 64 132 2.0 4.0 0.02 0.06 0.06 94 1013.5
20260901080536 64 148 1.0 4.0 0.04 0.06 0.06 94 1013.4
20260901080048 64 138 1.0 3.0 0.03 0.05 0.05 94 1013.4
20260901075535 64 134 1.0 3.0 0.03 0.05 0.05 94 1013.6
20260901075034 64 131 2.0 4.0 0.03 0.05 0.05 94 1013.5
20260901074534 64 142 2.0 4.0 0.03 0.05 0.05 94 1013.7
20260901074034 64 155 1.0 3.0 0.03 0.05 0.05 94 1013.7
20260901073533 64 158 0.0 3.0 0.03 0.05 0.05 94 1013.6
20260901073136 64 137 0.0 2.0 0.02 0.04 0.04 94 1013.7
20260901072532 64 137 0.0 0.0 0.02 0.04 0.04 94 1013.8
20260901072032 64 137 0.0 0.0 0.02 0.04 0.04 94 1013.9
20260901071535 64 137 0.0 1.0 0.02 0.04 0.04 94 1014.0
20260901071031 64 137 0.0 2.0 0.02 0.04 0.04 94 1013.9
20260901070530 64 137 0.0 3.0 0.00 0.02 0.02 94 1014.0
20260901070030 64 137 1.0 3.0 0.01 0.02 0.02 94 1014.1
20260901065531 64 136 1.0 3.0 0.01 0.02 0.02 94 1014.2
20260901065028 64 136 0.0 3.0 0.01 0.02 0.02 94 1014.2
20260901064530 64 136 0.0 4.0 0.02 0.02 0.02 94 1014.2
20260901064027 64 136 2.0 4.0 0.02 0.02 0.02 94 1014.3
20260901063527 64 132 1.0 3.0 0.02 0.02 0.02 94 1014.3
20260901063045 64 130 1.0 2.0 0.02 0.02 0.02 94 1014.4
20260901062526 64 129 0.0 2.0 0.02 0.02 0.02 94 1014.5
20260901062026 64 129 0.0 4.0 0.02 0.02 0.02 94 1014.5
20260901061526 64 129 2.0 4.0 0.02 0.02 0.02 94 1014.5
20260901061025 64 151 1.0 3.0 0.02 0.02 0.02 94 1014.6
20260901060527 64 134 1.0 3.0 0.02 0.02 0.02 94 1014.7
20260901060024 64 142 1.0 4.0 0.01 0.01 0.01 94 1014.7
20260901055524 64 138 1.0 4.0 0.01 0.01 0.01 94 1014.6
20260901055024 64 136 2.0 4.0 0.01 0.01 0.01 94 1014.7
20260901054523 64 143 2.0 3.0 0.00 0.00 0.00 94 1014.7
20260901054022 64 143 2.0 4.0 0.00 0.00 0.00 94 1014.8
20260901053521 64 128 2.0 4.0 0.00 0.00 0.00 94 1014.8
20260901053021 64 111 1.0 3.0 0.00 0.00 0.00 94 1014.9
20260901052520 64 130 0.0 0.0 0.00 0.00 0.00 94 1015.0
20260901052024 64 130 0.0 0.0 0.00 0.00 0.00 94 1015.1
20260901051520 64 130 0.0 0.0 0.00 0.00 0.00 94 1015.1
20260901051020 64 132 0.0 2.0 0.00 0.00 0.00 94 1015.2
20260901050522 64 132 0.0 3.0 0.00 0.00 0.00 94 1015.2
20260901050020 64 133 0.0 3.0 0.00 0.00 0.00 94 1015.4
20260901045520 64 157 1.0 4.0 0.00 0.00 0.00 94 1015.4
20260901045019 64 171 1.0 4.0 0.00 0.00 0.00 94 1015.4
20260901044528 64 140 0.0 3.0 0.00 0.00 0.00 94 1015.4
20260901044018 64 140 2.0 4.0 0.00 0.00 0.00 94 1015.3
20260901043519 64 140 2.0 4.0 0.00 0.00 0.00 94 1015.2
20260901043018 64 132 2.0 4.0 0.00 0.00 0.00 94 1015.0
20260901042516 64 135 0.0 2.0 0.00 0.00 0.00 94 1015.1
20260901042016 64 135 0.0 2.0 0.00 0.00 0.00 94 1015.2
20260901041525 64 143 0.0 0.0 0.00 0.00 0.00 94 1015.2
20260901041015 64 143 0.0 0.0 0.00 0.00 0.00 93 1015.3
20260901040514 64 143 0.0 1.0 0.00 0.00 0.00 93 1015.4
20260901040014 64 143 0.0 1.0 0.00 0.00 0.00 93 1015.3
20260901035513 64 143 0.0 2.0 0.00 0.02 0.00 93 1015.3
20260901035013 64 143 1.0 3.0 0.00 0.02 0.00 93 1015.3
20260901034528 64 143 1.0 3.0 0.00 0.02 0.00 93 1015.2
20260901034012 64 144 1.0 3.0 0.00 0.02 0.00 93 1015.2
20260901033512 64 145 1.0 2.0 0.00 0.02 0.00 93 1015.3
20260901033012 64 145 0.0 0.0 0.00 0.02 0.00 93 1015.4
20260901032512 64 145 0.0 0.0 0.00 0.02 0.00 93 1015.4
20260901032015 64 145 0.0 0.0 0.00 0.02 0.00 93 1015.4
20260901031514 64 145 0.0 0.0 0.00 0.02 0.00 93 1015.4
20260901031009 64 145 0.0 1.0 0.00 0.02 0.00 93 1015.5
20260901030509 64 145 0.0 1.0 0.00 0.02 0.00 93 1015.6
20260901030012 64 145 0.0 2.0 0.00 0.02 0.00 93 1015.5
20260901025509 64 145 0.0 3.0 0.00 0.03 0.00 93 1015.6
20260901025011 64 142 0.0 3.0 0.00 0.03 0.00 93 1015.6
20260901024509 64 142 1.0 3.0 0.00 0.03 0.00 93 1015.6
20260901024010 64 140 0.0 4.0 0.00 0.03 0.00 93 1015.5
20260901023509 63 144 2.0 5.0 0.00 0.03 0.00 93 1015.5
20260901023008 63 134 1.0 3.0 0.00 0.03 0.00 93 1015.6
20260901022509 63 131 1.0 4.0 0.00 0.03 0.00 93 1015.6
20260901022012 63 134 2.0 4.0 0.00 0.03 0.00 93 1015.6
20260901021508 63 130 2.0 4.0 0.00 0.03 0.00 93 1015.7
20260901021008 63 126 2.0 3.0 0.00 0.03 0.00 93 1015.8
20260901020511 63 102 1.0 2.0 0.00 0.03 0.00 93 1016.0
20260901020007 63 98 0.0 2.0 0.00 0.03 0.00 93 1016.1
20260901015507 64 98 0.0 3.0 0.00 0.03 0.00 93 1016.3
20260901015007 64 98 0.0 3.0 0.00 0.03 0.00 93 1016.2
20260901014507 64 130 1.0 2.0 0.00 0.03 0.00 93 1016.2
20260901014007 64 133 0.0 2.0 0.00 0.03 0.00 93 1016.1
20260901013507 64 133 0.0 3.0 0.00 0.03 0.00 92 1016.1
20260901013006 64 130 1.0 3.0 0.00 0.03 0.00 92 1016.1
20260901012507 64 136 1.0 3.0 0.00 0.03 0.00 92 1016.2
20260901012006 64 132 0.0 5.0 0.00 0.03 0.00 92 1016.2
20260901011508 64 150 1.0 5.0 0.00 0.03 0.00 92 1016.1
20260901011006 64 124 1.0 3.0 0.00 0.03 0.00 92 1016.0
20260901010506 64 124 1.0 3.0 0.00 0.03 0.00 92 1016.0
20260901010012 64 115 1.0 2.0 0.00 0.03 0.00 92 1015.9
20260901005506 64 113 0.0 2.0 0.00 0.03 0.00 92 1015.8
20260901005006 64 113 0.0 2.0 0.00 0.03 0.00 92 1015.8
20260901004505 64 113 0.0 2.0 0.00 0.03 0.00 92 1015.9
20260901004005 64 113 0.0 0.0 0.00 0.03 0.00 92 1015.9
20260901003507 64 113 0.0 2.0 0.00 0.03 0.00 92 1015.9
20260901003007 64 113 0.0 2.0 0.00 0.03 0.00 92 1015.8
20260901002505 64 113 0.0 2.0 0.00 0.03 0.00 92 1015.8
20260901002005 64 113 0.0 2.0 0.00 0.03 0.00 92 1015.7
20260901001508 64 114 0.0 2.0 0.00 0.03 0.00 92 1015.7
20260901001004 64 111 0.0 3.0 0.00 0.03 0.00 91 1015.6
20260901000503 64 113 0.0 3.0 0.00 0.03 0.00 91 1015.6
20260901000003 64 124 0.0 2.0 0.00 0.03 0.00 91 1015.8
20260831235503 64 124 0.0 2.0 0.00 0.03 0.00 91 1015.8
20260831235003 64 125 0.0 2.0 0.00 0.03 0.00 91 1015.9
20260831234502 64 124 0.0 2.0 0.00 0.03 0.00 91 1015.8
20260831234002 64 125 0.0 2.0 0.00 0.03 0.00 91 1015.8
20260831233503 64 125 0.0 3.0 0.00 0.03 0.00 91 1015.8
20260831233002 64 142 0.0 2.0 0.00 0.03 0.00 91 1015.8
20260831232502 64 142 0.0 2.0 0.00 0.03 0.00 91 1016.0
20260831232100 64 142 0.0 2.0 0.00 0.03 0.00 91 1016.0
20260831231603 64 142 0.0 3.0 0.00 0.03 0.00 90 1016.0
20260831231059 64 142 0.0 3.0 0.00 0.03 0.00 90 1016.1
20260831230558 64 142 1.0 3.0 0.00 0.03 0.00 90 1016.2
20260831230059 64 142 0.0 4.0 0.00 0.03 0.00 90 1016.2
20260831225559 64 142 1.0 4.0 0.00 0.03 0.00 90 1016.2
20260831225100 64 148 1.0 3.0 0.00 0.03 0.00 90 1016.2
20260831224558 64 148 1.0 3.0 0.00 0.03 0.00 90 1016.2
20260831224057 64 148 1.0 3.0 0.00 0.03 0.00 89 1016.2
20260831223558 64 149 0.0 5.0 0.00 0.03 0.00 89 1016.3
20260831223100 64 149 0.0 2.0 0.00 0.03 0.00 89 1016.3
20260831222556 64 149 0.0 3.0 0.00 0.03 0.00 89 1016.4
20260831222056 64 149 1.0 3.0 0.00 0.03 0.00 89 1016.4
20260831221556 64 153 2.0 5.0 0.00 0.03 0.00 89 1016.4
20260831221054 64 150 1.0 5.0 0.00 0.03 0.00 89 1016.4
20260831220554 64 169 0.0 3.0 0.00 0.03 0.00 89 1016.5
20260831220054 64 169 1.0 3.0 0.00 0.03 0.00 88 1016.5
20260831215553 64 167 1.0 3.0 0.00 0.04 0.00 89 1016.6
20260831215053 64 147 0.0 5.0 0.00 0.04 0.00 89 1016.7
20260831214604 64 144 2.0 5.0 0.00 0.04 0.00 89 1016.6
20260831214052 64 144 1.0 3.0 0.00 0.04 0.00 89 1016.6
20260831213552 64 141 1.0 2.0 0.00 0.04 0.00 89 1016.6
20260831213100 64 142 1.0 3.0 0.00 0.04 0.00 89 1016.7
20260831212554 64 142 1.0 3.0 0.00 0.04 0.00 89 1016.6
20260831212051 64 142 0.0 2.0 0.00 0.04 0.00 89 1016.8
20260831211551 64 143 0.0 2.0 0.00 0.04 0.00 89 1016.9
20260831211050 64 146 0.0 3.0 0.00 0.04 0.00 89 1016.8
20260831210549 64 146 1.0 5.0 0.00 0.04 0.00 89 1016.9
20260831210049 64 194 2.0 5.0 0.00 0.04 0.00 88 1016.9
20260831205549 64 186 2.0 7.0 0.00 0.06 0.00 87 1016.9
20260831205048 65 198 2.0 7.0 0.00 0.06 0.00 86 1017.0
20260831204554 65 194 2.0 6.0 0.00 0.06 0.00 86 1017.0
20260831204051 65 162 0.0 5.0 0.00 0.06 0.00 85 1017.0
20260831203550 65 163 1.0 5.0 0.00 0.06 0.00 83 1017.0
20260831203058 65 155 0.0 5.0 0.00 0.06 0.00 82 1017.0
20260831202549 66 153 2.0 5.0 0.00 0.06 0.00 82 1017.0
20260831202048 66 100 0.0 1.0 0.00 0.06 0.00 81 1017.1
20260831201556 66 100 0.0 1.0 0.00 0.06 0.00 81 1017.0
20260831201047 65 100 0.0 2.0 0.00 0.06 0.00 81 1017.0
20260831200546 65 100 1.0 2.0 0.00 0.06 0.00 81 1017.0
20260831200046 66 100 1.0 2.0 0.00 0.06 0.00 80 1017.1
20260831195549 66 100 1.0 2.0 0.00 0.06 0.00 80 1017.1
20260831195048 66 100 1.0 3.0 0.00 0.06 0.00 80 1017.2
20260831194546 66 100 1.0 3.0 0.00 0.06 0.00 80 1017.4
20260831194044 66 113 1.0 3.0 0.00 0.06 0.00 80 1017.3
20260831193544 66 113 1.0 3.0 0.00 0.06 0.00 79 1017.3
20260831193113 66 138 1.0 3.0 0.00 0.06 0.00 79 1017.4
20260831192543 66 138 1.0 4.0 0.00 0.06 0.00 79 1017.5
20260831192047 66 138 1.0 6.0 0.00 0.06 0.00 79 1017.5
20260831191543 66 108 0.0 6.0 0.00 0.06 0.00 79 1017.5
20260831191042 66 179 2.0 9.0 0.00 0.06 0.00 77 1017.6
20260831190542 66 146 6.0 9.0 0.00 0.06 0.00 77 1017.6
20260831190046 66 198 3.0 7.0 0.00 0.06 0.00 77 1017.6
20260831185541 67 141 4.0 7.0 0.00 0.06 0.00 75 1017.7
20260831185040 67 157 3.0 6.0 0.00 0.06 0.00 76 1017.7
20260831184540 67 205 3.0 6.0 0.00 0.06 0.00 74 1017.8
20260831184042 67 205 1.0 5.0 0.00 0.06 0.00 76 1017.8
20260831183640 67 212 1.0 7.0 0.00 0.06 0.00 76 1017.9
20260831183044 67 200 4.0 7.0 0.00 0.06 0.00 77 1017.9
20260831182539 67 151 1.0 6.0 0.00 0.06 0.00 78 1017.9
20260831182039 67 189 0.0 6.0 0.00 0.06 0.00 78 1018.0
20260831181550 67 197 3.0 5.0 0.00 0.06 0.00 76 1018.0
20260831181038 67 209 0.0 2.0 0.00 0.06 0.00 79 1018.2
20260831180538 67 208 1.0 4.0 0.00 0.06 0.00 79 1018.1
20260831180039 67 208 0.0 4.0 0.00 0.06 0.00 79 1018.2
20260831175541 67 221 1.0 4.0 0.00 0.06 0.00 80 1018.2
20260831175037 67 227 1.0 8.0 0.00 0.06 0.00 80 1018.2
20260831174537 67 217 0.0 8.0 0.00 0.06 0.00 80 1018.2
20260831174038 67 190 1.0 8.0 0.00 0.06 0.00 81 1018.3
20260831173539 67 202 1.0 6.0 0.00 0.06 0.00 81 1018.3
20260831173036 67 209 1.0 6.0 0.00 0.06 0.00 80 1018.3
20260831172536 67 167 3.0 8.0 0.00 0.06 0.00 80 1018.4
20260831172036 67 238 2.0 11.0 0.00 0.06 0.00 80 1018.4
20260831171536 67 213 4.0 11.0 0.00 0.06 0.00 79 1018.5
20260831171035 67 195 4.0 6.0 0.00 0.06 0.00 79 1018.4
20260831170537 67 188 1.0 5.0 0.00 0.06 0.00 79 1018.6
20260831170036 67 194 1.0 6.0 0.00 0.06 0.00 79 1018.6
20260831165534 67 197 3.0 6.0 0.00 0.06 0.00 78 1018.6
20260831165034 67 131 2.0 8.0 0.00 0.06 0.00 78 1018.6
20260831164549 67 133 3.0 8.0 0.00 0.06 0.00 78 1018.8
20260831164034 67 184 4.0 9.0 0.00 0.06 0.00 78 1018.8
20260831163534 67 137 4.0 8.0 0.00 0.06 0.00 78 1018.6
20260831163033 67 198 4.0 7.0 0.00 0.06 0.00 78 1018.7
20260831162534 67 128 3.0 7.0 0.00 0.06 0.00 79 1018.6
20260831162036 66 134 2.0 7.0 0.00 0.06 0.00 79 1018.6
20260831161551 66 132 3.0 8.0 0.00 0.06 0.00 79 1018.7
20260831161031 66 186 4.0 8.0 0.00 0.06 0.00 79 1018.7
20260831160533 66 155 3.0 8.0 0.00 0.06 0.00 78 1018.7
20260831160034 66 157 4.0 10.0 0.00 0.06 0.00 77 1018.9
20260831155532 66 143 5.0 10.0 0.00 0.06 0.00 77 1018.8
20260831155032 66 138 4.0 8.0 0.00 0.06 0.00 77 1018.9
20260831154531 66 148 4.0 9.0 0.00 0.06 0.00 78 1019.0
20260831154031 66 132 4.0 9.0 0.00 0.06 0.00 78 1018.8
20260831153530 66 207 3.0 8.0 0.00 0.06 0.00 78 1018.9
20260831153030 66 120 3.0 9.0 0.00 0.06 0.00 78 1018.9
20260831152534 66 146 4.0 9.0 0.00 0.06 0.00 78 1018.8
20260831152029 66 135 4.0 8.0 0.00 0.06 0.00 84 1018.8
20260831151529 66 186 3.0 8.0 0.00 0.06 0.00 80 1018.9
20260831151030 66 138 1.0 5.0 0.00 0.06 0.00 82 1018.9
20260831150527 66 203 2.0 6.0 0.00 0.06 0.00 82 1019.0
20260831150028 66 147 1.0 6.0 0.00 0.06 0.00 82 1019.0
20260831145528 66 167 3.0 6.0 0.00 0.06 0.00 82 1019.0
20260831145027 66 188 3.0 7.0 0.00 0.06 0.00 81 1019.0
20260831144528 66 164 4.0 7.0 0.00 0.06 0.00 81 1019.0
20260831144027 66 168 3.0 8.0 0.00 0.06 0.00 79 1019.0
20260831143530 66 151 4.0 8.0 0.00 0.06 0.00 79 1019.0
20260831143027 66 165 3.0 6.0 0.00 0.06 0.00 81 1018.8
20260831142527 66 169 3.0 5.0 0.00 0.06 0.00 81 1018.7
20260831142026 66 175 2.0 5.0 0.00 0.06 0.00 82 1018.7
20260831141531 66 141 2.0 6.0 0.00 0.06 0.00 82 1018.8